This demonstration page uses our WeatherBlox Daily Observations layout. Learn more.

Left ArrowRight Arrow

39.92423, -83.80882

Hourly Observations for July 20, 2022

Temp ( °F °C ) Dew Point ( °F °C ) Humidity (%) Winds ( mph kmh ) Pressure ( in mb ) Visibility ( mi km ) Precip ( " mm )
12:56 am 00:56 Clear 73 23 N/A N/A S 6 9 29.88 1012 10 16 0.00 0.00
1:56 am 01:56 Clear 72 22 N/A N/A S 5 7 29.88 1012 10 16 0.00 0.00
2:56 am 02:56 Clear 72 22 N/A N/A S 6 9 29.85 1011 10 16 0.00 0.00
3:56 am 03:56 Clear 72 22 N/A N/A S 5 7 29.83 1010 10 16 0.00 0.00
4:56 am 04:56 Clear 70 21 N/A N/A S 5 7 29.82 1010 10 16 0.00 0.00
5:56 am 05:56 Clear 70 21 N/A N/A S 5 7 29.82 1010 10 16 0.00 0.00
6:56 am 06:56 Mostly Cloudy 70 21 N/A N/A S 6 9 29.82 1010 9 14 0.00 0.00
7:56 am 07:56 Sunny 73 23 N/A N/A S 7 11 29.81 1010 10 16 0.00 0.00
8:56 am 08:56 Partly Cloudy 76 24.4 76 24.4 100 100 SSW 8 13 29.80 1009 10 16 0.00 0.00
9:56 am 09:56 Sunny 79 26.1 79 26.1 100 100 SW 7 11 29.79 1009 10 16 0.00 0.00
10:53 am 10:53 Mostly Cloudy 82 28 81 27 94 94 SSW 8 13 29.74 1007 9 14 0.00 0.00
10:56 am 10:56 Mostly Cloudy 82 27.8 80 26.7 94 94 SSW 9 15 29.77 1008 10 16 0.00 0.00
11:56 am 11:56 Mostly Cloudy 83 28.3 78 25.6 85 85 SW 12 19 29.76 1008 10 16 0.00 0.00
12:08 pm 12:08 Partly Cloudy 84 29 79 26 84 84 SSW 8 13 29.72 1006 10 16 0.00 0.00
12:52 pm 12:52 Mostly Cloudy 84 29 79 26 84 84 SSW 14 22 29.70 1006 9 14 0.00 0.00
12:56 pm 12:56 Mostly Cloudy 85 29.4 77 25 77 77 SW 13 20 29.74 1007 9 14 0.00 0.00
1:40 pm 13:40 Mostly Cloudy 84 29 77 25 79 79 SW 12 19 29.69 1005 10 16 0.00 0.00
1:56 pm 13:56 Mostly Cloudy 87 30.6 77 25 72 72 SW 14 22 29.72 1006 10 16 0.00 0.00
2:56 pm 14:56 Partly Cloudy 87 30.6 76 24.4 70 70 SW 13 20 29.70 1006 10 16 0.00 0.00
3:56 pm 15:56 Partly Cloudy 88 31.1 77 25 70 70 SSW 14 22 29.67 1005 10 16 0.00 0.00
4:56 pm 16:56 Mostly Sunny 89 31.7 76 24.4 65 65 SW 9 15 29.65 1004 10 16 0.00 0.00
5:56 pm 17:56 Partly Cloudy 88 31.1 76 24.4 68 68 SW 15 24 29.64 1004 10 16 0.00 0.00
6:56 pm 18:56 Mostly Sunny 87 30.6 77 25 72 72 SW 12 19 29.64 1004 10 16 0.00 0.00
7:56 pm 19:56 Partly Cloudy 86 30 77 25 75 75 SW 14 22 29.64 1004 10 16 0.00 0.00
8:56 pm 20:56 Partly Cloudy 84 28.9 79 26.1 85 85 WSW 12 19 29.64 1004 10 16 0.00 0.00
9:49 pm 21:49 Mostly Cloudy with Nearby Thunderstorms 84 29 79 26 84 84 WSW 15 24 29.62 1003 10 16 0.00 0.00
9:56 pm 21:56 Mostly Cloudy with Nearby Thunderstorms 84 28.9 78 25.6 82 82 W 12 19 29.66 1004 10 16 0.00 0.00
10:04 pm 22:04 Mostly Cloudy 84 29 79 26 84 84 W 13 20 29.63 1003 10 16 0.00 0.00
10:56 pm 22:56 Cloudy 83 28.3 71 21.7 67 67 W 12 19 29.67 1005 10 16 0.00 0.00
11:56 pm 23:56 Partly Cloudy 78 25.6 70 21.1 76 76 W 8 13 29.70 1006 10 16 0.00 0.00

Powered by AerisWeather